FLOCK 2E-9

Last updated on Dec. 25, 2017, 12:15 a.m. UTC

1 41571U 98067JV  17358.79358663  .07570510  12393-4  99252-3 0  9996
2 41571  51.6107 107.3098 0009920 356.3054   4.2290 16.34648771 89702

Satellite is not in orbit.